GW1195 Weather Reports


time (UTC)temp
C
wind
direction
speed
KPH
gust
KPH
rain 1hr
cm
rain 24hr
cm
rain mn
cm
humidity
%
barometer
mb
20260905123103 10 0 0.0 3.2 0.00 0.00 0.00 97 1016.6
20260905121553 10 0 0.0 0.0 0.00 0.00 0.00 97 1016.5
20260905120055 10 252 0.0 1.6 0.00 0.00 0.00 97 1016.5
20260905114600 10 0 0.0 1.6 0.00 0.00 0.00 97 1016.5
20260905113050 9 0 0.0 0.0 0.00 0.00 0.00 97 1016.6
20260905111546 9 0 0.0 0.0 0.00 0.00 0.00 97 1016.5
20260905110049 9 0 0.0 0.0 0.00 0.00 0.00 96 1016.5
20260905104550 8 0 0.0 1.6 0.00 0.00 0.00 96 1016.4
20260905103054 9 0 0.0 1.6 0.00 0.00 0.00 96 1016.4
20260905101557 9 0 0.0 3.2 0.00 0.00 0.00 96 1016.5
20260905100117 9 0 0.0 0.0 0.00 0.00 0.00 96 1016.5
20260905094551 9 0 0.0 1.6 0.00 0.00 0.00 95 1016.4
20260905093047 10 0 0.0 1.6 0.00 0.00 0.00 96 1016.5
20260905091554 10 0 0.0 3.2 0.00 0.00 0.00 95 1016.4
20260905090048 9 0 0.0 1.6 0.00 0.00 0.00 95 1016.3
20260905084552 10 0 0.0 0.0 0.00 0.00 0.00 95 1016.3
20260905083103 10 0 0.0 3.2 0.00 0.00 0.00 95 1016.3
20260905081550 10 0 0.0 1.6 0.00 0.00 0.00 95 1016.2
20260905080051 10 253 0.0 1.6 0.00 0.00 0.00 95 1016.1
20260905074549 10 0 0.0 1.6 0.00 0.03 0.00 94 1016.0
20260905073043 11 0 0.0 3.2 0.00 0.03 0.00 94 1015.9
20260905071551 11 214 0.0 3.2 0.00 0.03 0.00 94 1015.9
20260905070051 11 0 0.0 1.6 0.00 0.03 0.00 94 1015.7
20260905064607 11 0 0.0 1.6 0.00 0.03 0.03 93 1015.7
20260905063042 11 0 0.0 1.6 0.00 0.03 0.03 93 1015.6
20260905061549 11 0 0.0 1.6 0.00 0.03 0.03 93 1015.4
20260905060050 12 0 0.0 3.2 0.00 0.03 0.03 93 1015.4
20260905054629 12 0 0.0 1.6 0.00 0.03 0.03 92 1015.4
20260905053044 12 0 0.0 3.2 0.00 0.03 0.03 92 1015.3
20260905051550 12 0 0.0 1.6 0.00 0.03 0.03 92 1015.4
20260905050049 12 0 0.0 1.6 0.00 0.03 0.03 91 1015.6
20260905044553 12 0 0.0 1.6 0.00 0.03 0.03 92 1015.5
20260905043056 13 0 0.0 1.6 0.00 0.03 0.03 91 1015.5
20260905041548 13 0 0.0 4.8 0.00 0.03 0.03 90 1015.3
20260905040059 13 65 0.0 4.8 0.00 0.03 0.03 90 1015.3
20260905034559 14 36 1.6 4.8 0.00 0.03 0.03 90 1015.0
20260905033042 14 0 1.6 4.8 0.00 0.03 0.03 89 1014.6
20260905031550 15 360 1.6 4.8 0.00 0.03 0.03 87 1014.6
20260905030049 15 0 0.0 4.8 0.00 0.03 0.03 87 1014.6
20260905024554 15 171 0.0 1.6 0.00 0.18 0.03 86 1014.5
20260905023049 16 0 0.0 6.4 0.00 0.18 0.03 85 1014.5
20260905021549 16 169 1.6 8.0 0.00 0.18 0.03 83 1014.3
20260905020054 17 0 0.0 6.4 0.00 0.18 0.03 81 1014.2
20260905014554 17 173 1.6 3.2 0.00 0.25 0.03 79 1014.2
20260905013049 17 99 0.0 8.0 0.00 0.25 0.03 77 1014.1
20260905011552 18 0 0.0 12.9 0.00 0.25 0.03 70 1014.0
20260905010053 19 269 3.2 11.3 0.00 0.25 0.03 68 1013.9
20260905004553 18 290 3.2 14.5 0.00 0.46 0.03 70 1013.6
20260905003046 18 291 3.2 17.7 0.00 0.46 0.03 73 1013.5
20260905001547 18 360 8.0 17.7 0.00 0.46 0.03 74 1013.4
20260905000054 18 269 4.8 14.5 0.00 0.46 0.03 75 1013.2
20260904234550 18 337 3.2 14.5 0.00 0.66 0.03 73 1013.1
20260904233047 18 290 1.6 12.9 0.00 0.66 0.03 73 1013.2
20260904231601 18 271 4.8 17.7 0.00 0.66 0.03 72 1013.0
20260904230043 20 281 9.7 17.7 0.00 0.66 0.03 70 1012.9
20260904224556 18 25 3.2 8.0 0.00 0.89 0.03 69 1013.0
20260904223048 18 123 4.8 14.5 0.00 0.89 0.03 73 1012.9
20260904221555 18 98 3.2 14.5 0.00 0.89 0.03 69 1012.9
20260904220051 18 128 1.6 6.4 0.00 0.89 0.03 68 1012.8
20260904214548 19 80 1.6 9.7 0.00 0.89 0.03 68 1012.6
20260904213048 19 70 4.8 11.3 0.00 0.89 0.03 67 1012.6
20260904211545 20 153 3.2 8.0 0.00 0.89 0.03 66 1012.5
20260904210054 19 150 1.6 6.4 0.00 0.89 0.03 65 1012.4
20260904204548 18 171 1.6 8.0 0.00 0.89 0.03 67 1012.3
20260904203057 18 106 1.6 4.8 0.00 0.89 0.03 70 1012.3
20260904201555 18 88 1.6 6.4 0.00 0.89 0.03 71 1012.4
20260904200106 18 82 3.2 9.7 0.00 0.89 0.03 70 1012.6
20260904194551 18 159 3.2 9.7 0.00 0.89 0.03 69 1012.5
20260904193051 18 62 1.6 14.5 0.00 0.89 0.03 71 1012.3
20260904191547 18 72 3.2 9.7 0.00 0.89 0.03 70 1012.5
20260904190051 19 67 3.2 14.5 0.00 0.89 0.03 68 1012.4
20260904184542 19 116 4.8 16.1 0.00 0.97 0.03 70 1012.4
20260904183050 18 92 1.6 12.9 0.00 0.97 0.03 75 1012.3
20260904181549 17 69 1.6 11.3 0.00 0.97 0.03 76 1012.2
20260904180056 17 132 1.6 12.9 0.00 0.97 0.03 77 1012.1
20260904174550 17 154 1.6 9.7 0.00 1.47 0.03 77 1012.0
20260904173100 16 85 3.2 12.9 0.00 1.47 0.03 78 1012.0
20260904171551 17 50 3.2 12.9 0.00 1.47 0.03 79 1011.9
20260904170054 15 82 4.8 12.9 0.00 1.47 0.03 82 1011.7
20260904164553 15 81 3.2 16.1 0.00 2.03 0.03 82 1011.9
20260904163046 15 80 3.2 11.3 0.00 2.03 0.03 83 1011.7
20260904161541 14 68 3.2 14.5 0.00 2.03 0.03 84 1011.7
20260904160052 14 90 3.2 11.3 0.00 2.03 0.03 85 1011.6
20260904154550 13 74 1.6 8.0 0.00 2.11 0.03 85 1011.6
20260904153047 13 63 1.6 9.7 0.00 2.11 0.03 86 1011.4
20260904151553 13 74 3.2 12.9 0.00 2.11 0.03 86 1011.4
20260904150050 13 46 3.2 8.0 0.00 2.11 0.03 87 1011.1
20260904144547 13 82 1.6 6.4 0.00 2.13 0.03 87 1010.8
20260904143048 13 0 0.0 9.7 0.00 2.13 0.03 88 1010.7
20260904141557 12 90 3.2 9.7 0.00 2.13 0.03 88 1010.6
20260904134610 13 107 4.8 14.5 0.00 2.21 0.03 88 1010.4
20260904133046 13 96 4.8 14.5 0.00 2.21 0.03 88 1010.1
20260904131550 13 72 4.8 14.5 0.00 2.21 0.03 87 1010.1
20260904130048 13 109 3.2 11.3 0.00 2.21 0.03 88 1010.1
20260904124543 13 62 3.2 8.0 0.00 2.21 0.03 88 1010.1